Location: Artiguedieu
(43.5000°N, 0.5454°E)
Time: 19:17:50
(UTC+00:00)

Vanguard 1 - Pass Details

Date: 06 August 2021
Orbit: 652 x 3831 km, 34.3° (Epoch: 19 September)

Event Time Altitude Azimuth Distance (km) Brightness Sun altitude
Rises 10:14:34 0° 243° (WSW) 2,956 12.4 54.5°
Reaches altitude 10° 10:16:57 10° 231° (SW) 2,075 11.8 54.8°
Maximum altitude 10:20:54 29° 170° (S) 1,337 11.8 55.4°
Drops below altitude 10° 10:25:58 10° 111° (ESE) 2,702 13.0 56.0°
Sets 10:29:32 0° 101° (E) 4,054 13.6 56.5°
